Voltar ao catálogo

SL-16 DEB

AtivoLEO
NORAD 22609·DEBRIS·🇷🇺 Russia

Lançado Mar 26, 1993 de Baikonur Cosmodrome

Loading…

Próximas Passagens (próximas 24 horas)

TLE

AtualizadoSource: Space-Track

Época: Sep 14, 2026, 13:20 UTC

1 22609U 93016T   26257.55603872  .00000145  00000-0  14438-3 0  9999
2 22609  70.9912 294.2959 0134113  40.0509 110.7438 13.89379179692503

Acompanhe SL-16 DEB em tempo real com AllMySat

Download on the App Store